TimePDT,TemperatureF,Dew PointF,Humidity,Sea Level PressureIn,VisibilityMPH,Wind Direction,Wind SpeedMPH,Gust SpeedMPH,PrecipitationIn,Events,Conditions,WindDirDegrees,DateUTC
12:53 AM,51.1,35.1,54,29.99,10.0,Calm,Calm,-,N/A,,Clear,0,2013-09-11 07:53:00
1:53 AM,48.9,36.0,61,29.99,10.0,Calm,Calm,-,N/A,,Clear,0,2013-09-11 08:53:00
2:53 AM,46.9,35.1,63,30.00,10.0,South,3.5,-,N/A,,Clear,190,2013-09-11 09:53:00
3:53 AM,46.0,35.1,66,30.00,10.0,SSW,3.5,-,N/A,,Clear,200,2013-09-11 10:53:00
4:53 AM,45.0,35.1,68,30.01,10.0,South,3.5,-,N/A,,Clear,190,2013-09-11 11:53:00
5:53 AM,44.1,34.0,68,30.03,10.0,Calm,Calm,-,N/A,,Clear,0,2013-09-11 12:53:00
6:53 AM,43.0,34.0,71,30.06,10.0,South,3.5,-,N/A,,Clear,190,2013-09-11 13:53:00
7:53 AM,46.0,36.0,68,30.08,10.0,South,3.5,-,N/A,,Clear,190,2013-09-11 14:53:00
8:53 AM,55.9,37.0,49,30.07,10.0,Calm,Calm,-,N/A,,Clear,0,2013-09-11 15:53:00
9:53 AM,66.9,39.9,37,30.05,10.0,ENE,3.5,-,N/A,,Clear,60,2013-09-11 16:53:00
10:53 AM,72.0,41.0,33,30.04,10.0,ENE,5.8,-,N/A,,Clear,70,2013-09-11 17:53:00
11:53 AM,75.9,35.1,23,30.02,10.0,NNE,9.2,-,N/A,,Clear,30,2013-09-11 18:53:00
12:53 PM,78.1,30.9,18,30.01,10.0,Variable,6.9,-,N/A,,Clear,0,2013-09-11 19:53:00
1:53 PM,79.0,30.0,17,30.01,10.0,Variable,3.5,-,N/A,,Clear,0,2013-09-11 20:53:00
2:53 PM,77.0,30.9,19,30.01,10.0,Calm,Calm,-,N/A,,Clear,0,2013-09-11 21:53:00
3:53 PM,78.1,36.0,22,30.00,10.0,Variable,6.9,-,N/A,,Partly Cloudy,0,2013-09-11 22:53:00
4:53 PM,77.0,37.0,24,30.01,10.0,Calm,Calm,-,N/A,,Partly Cloudy,0,2013-09-11 23:53:00
5:53 PM,75.0,34.0,22,30.02,10.0,Calm,Calm,-,N/A,,Partly Cloudy,0,2013-09-12 00:53:00
6:53 PM,72.0,37.0,28,30.04,10.0,South,8.1,-,N/A,,Mostly Cloudy,180,2013-09-12 01:53:00
7:53 PM,66.9,36.0,32,30.05,10.0,SSW,3.5,-,N/A,,Mostly Cloudy,210,2013-09-12 02:53:00
8:53 PM,63.0,37.9,40,30.04,10.0,Calm,Calm,-,N/A,,Overcast,0,2013-09-12 03:53:00
9:53 PM,57.9,37.9,47,30.04,10.0,Calm,Calm,-,N/A,,Clear,0,2013-09-12 04:53:00
10:53 PM,55.9,37.0,49,30.03,10.0,SW,3.5,-,N/A,,Clear,220,2013-09-12 05:53:00
11:53 PM,53.1,37.0,55,30.02,10.0,South,3.5,-,N/A,,Clear,190,2013-09-12 06:53:00